SCP
0 0 0 0 0 0 0 0 0 0 0 0 0 0 0 0 0 0 0 0 0 0 0 0 0 0 0 0 0 0 0 0 0 0 0 0 0 0 0 0 0 0 0 0 0 0 0 0 0
0 0 0 0 0 0 0 0 0 0 0 0 0 0 0 0 0 0 0 0 0 0 0 0 0 0 0 0 0 0 0 0 0 0 0 0 0 0 0 0 0 0 0 0 0 0 0 0 0
0 0 0 0 0 0 0 0 0 0 0 0 0 0 0 0 0 0 0 0 0 0 0 0 0 0 0 0 0 0 0 0 0 0 0 0 0 0 0 0 0 0 0 0 0 0 0 0 0
0 0 0 0 0 0 0 0 0 0 0 0 0 0 0 0 0 0 0 0 0 0 0 0 0 0 0 0 0 0 0 0 0 0 0 0 0 0 0 0 0 0 0 0 0 0 0 0 0
0 0 0 0 0 0 0 0 0 0 0 0 0 0 0 0 0 0 0 0 0 0 0 0 0 0 0 0 0 0 0 0 0 0 0 0 0 0 0 0 0 0 0 0 0 0 0 0 0
0 0 0 0 0 0 0 0 0 0 0 0 0 0 0 0 0 0 0 0 0 0 0 0 0 0 0 0 0 0 0 0 0 0 0 0 0 0 0 0 0 0 0 0 0 0 0 0 0
0 0 0 0 0 0 0 0 0 0 0 0 0 0 0 0 0 0 0 0 0 0 0 0 0 0 0 0 0 0 0 0 0 0 0 0 0 0 0 0 0 0 0 0 0 0 0 0 0
0 0 0 0 0 0 0 0 0 0 0 0 0 0 0 0 0 0 0 0 0 0 0 0 0 0 0 0 0 0 0 0 0 0 0 0 0 0 0 0 0 0 0 0 0 0 0 0 0
0 0 0 0 0 0 0 0 0 0 0 0 0 0 0 0 0 0 0 0 0 0 0 0 0 0 0 0 0 0 0 0 0 0 0 0 0 0 0 0 0 0 0 0 0 0 0 0 0
0 0 0 0 0 0 0 0 0 0 0 0 0 0 0 0 0 0 0 0 0 0 0 0 0 0 0 0 0 0 0 0 0 0 0 0 0 0 0 0 0 0 0 0 0 0 0 0 0
0 0 0 0 0 0 0 0 0 0 0 0 0 0 0 0 0 0 0 0 0 0 0 0 0 0 0 0 0 0 0 0 0 0 0 0 0 0 0 0 0 0 0 0 0 0 0 0 0
0 0 0 0 0 0 0 0 0 0 0 0 0 0 0 0 0 0 0 0 0 0 0 0 0 0 0 0 0 0 0 0 0 0 0 0 0 0 0 0 0 0 0 0 0 0 0 0 0
0 0 0 0 0 0 0 0 0 0 0 0 0 0 0 0 0 0 0 0 0 0 0 0 0 0 0 0 0 0 0 0 0 0 0 0 0 0 0 0 0 0 0 0 0 0 0 0 0
0 0 0 0 0 0 0 0 0 0 0 0 0 0 0 0 0 0 0 0 0 0 0 0 0 0 0 0 0 0 0 0 0 0 0 0 0 0 0 0 0 0 0 0 0 0 0 0 0
0 0 0 0 0 0 0 0 0 0 0 0 0 0 0 0 0 0 0 0 0 0 0 0 0 0 0 0 0 0 0 0 0 0 0 0 0 0 0 0 0 0 0 0 0 0 0 0 0
0 0 0 0 0 0 0 0 0 0 0 0 0 0 0 0 0 0 0 0 0 0 0 0 0 0 0 0 0 0 0 0 0 0 0 0 0 0 0 0 0 0 0 0 0 0 0 0 0
0 0 0 0 0 0 0 0 0 0 0 0 0 0 0 0 0 0 0 0 0 0 0 0 0 0 0 0 0 0 0 0 0 0 0 0 0 0 0 0 0 0 0 0 0 0 0 0 0
0 0 0 0 0 0 0 0 0 0 0 0 0 0 0 0 0 0 0 0 0 0 0 0 0 0 0 0 0 0 0 0 0 0 0 0 0 0 0 0 0 0 0 0 0 0 0 0 0
0 0 0 0 0 0 0 0 0 0 0 0 0 0 0 0 0 0 0 0 0 0 0 0 0 0 0 0 0 0 0 0 0 0 0 0 0 0 0 0 0 0 0 0 0 0 0 0 0
0 0 0 0 0 0 0 0 0 0 0 0 0 0 0 0 0 0 0 0 0 0 0 0 0 0 0 0 0 0 0 0 0 0 0 0 0 0 0 0 0 0 0 0 0 0 0 0 0
0 0 0 0 0 0 0 0 0 0 0 0 0 0 0 0 0 0 0 0 0 0 0 0 0 0 0 0 0 0 0 0 0 0 0 0 0 0 0 0 0 0 0 0 0 0 0 0 0
0 0 0 0 0 0 0 0 0 0 0 0 0 0 0 0 0 0 0 0 0 0 0 0 0 0 0 0 0 0 0 0 0 0 0 0 0 0 0 0 0 0 0 0 0 0 0 0 0
0 0 0 0 0 0 0 0 0 0 0 0 0 0 0 0 0 0 0 0 0 0 0 0 0 0 0 0 0 0 0 0 0 0 0 0 0 0 0 0 0 0 0 0 0 0 0 0 0
0 0 0 0 0 0 0 0 0 0 0 0 0 0 0 0 0 0 0 0 0 0 0 0 0 0 0 0 0 0 0 0 0 0 0 0 0 0 0 0 0 0 0 0 0 0 0 0 0
0 0 0 0 0 0 0 0 0 0 0 0 0 0 0 0 0 0 0 0 0 0 0 0 0 0 0 0 0 0 0 0 0 0 0 0 0 0 0 0 0 0 0 0 0 0 0 0 0
0 0 0 0 0 -0 -0 0 0 0 0 0 0 0 0 0 0 0 0 0 0 0 0 0 0 0 0 0 0 0 0 0 0 0 0 0 0 0 0 0 0 0 0 0 0 0 0 0 0
0 0 0 0 0 0 0 0 0 0 0 0 0 0 0 0 0 0 0 0 0 0 0 0 0 0 0 0 0 0 0 0 0 0 0 0 0 0 0 0 0 0 0 0 0 0 0 0 0
-0 -0 0 0 0 0 0 0 0 0 0 0 0 0 0 0 0 0 0 0 0 0 0 0 0 0 0 0 0 0 0 0 0 0 0 0 0 0 0 0 0 0 0 0 0 0 0 0 0
-0 -0 -0 0 0 0 0 0 0 0 0 0 0 0 0 0 0 0 0 0 0 0 0 0 0 0 0 0 0 0 0 0 0 0 0 0 0 0 0 0 0 0 0 0 0 0 0 0 0
-0 -0 -0 0 0 0 0 0 0 0 0 0 0 0 0 0 0 0 0 0 0 0 0 0 0 0 0 0 0 0 0 0 0 0 0 0 0 0 0 0 0 0 0 0 0 0 0 0 0
Wind_Speed
3 1 2 4 7 6 3 2 1 3 4 5 8 9 8 6 4 4 1 4 6 4 3 4 7 8 9 9 9 9 10 10 10 10 9 10 10 10 10 10 10 11 10 10 9 9 9 9 9
1 1 4 5 6 4 2 1 3 4 6 6 8 8 8 6 4 5 2 4 6 5 3 5 7 9 9 9 9 9 10 10 10 10 9 10 9 9 10 10 10 10 10 9 9 9 9 9 9
1 1 4 5 4 4 3 1 3 4 5 5 6 6 5 4 3 3 3 6 6 5 3 5 8 9 9 9 9 9 9 9 10 10 10 10 10 9 9 9 10 10 9 9 9 9 9 9 9
3 5 5 6 3 1 4 3 3 5 6 6 6 6 4 2 3 4 6 7 7 4 3 4 8 9 8 8 8 9 9 9 9 10 10 10 10 10 9 9 9 9 9 9 9 9 9 8 8
4 5 6 4 2 1 1 2 4 5 4 4 6 6 3 3 6 7 7 7 7 4 3 4 7 8 8 8 8 8 8 9 9 10 10 10 9 9 9 9 8 8 8 8 8 8 8 8 8
5 5 5 2 1 1 1 3 5 7 6 5 6 6 2 2 6 6 6 6 6 6 4 3 7 7 7 8 8 8 8 8 9 9 9 9 9 8 8 8 8 8 8 8 8 8 8 8 9
5 4 3 3 2 1 1 3 6 6 6 4 5 6 3 1 4 6 6 6 6 5 4 3 2 4 6 7 6 7 7 8 8 8 9 9 9 8 8 7 7 7 7 7 7 7 7 8 8
5 5 3 2 3 1 1 3 4 6 4 4 5 7 4 4 4 5 6 6 5 4 4 3 2 2 2 3 5 6 7 7 8 8 8 9 8 8 8 7 8 7 7 7 7 7 7 7 8
4 6 2 2 4 2 2 4 3 4 6 5 4 4 5 7 7 7 5 4 4 4 3 3 2 2 2 2 3 4 5 6 6 5 7 6 4 4 4 6 7 8 7 7 8 8 8 7 7
5 4 2 3 4 4 4 5 4 5 6 5 5 5 7 7 7 7 6 4 4 3 3 2 2 2 2 2 2 2 3 3 3 3 4 3 3 3 5 6 8 8 8 8 8 9 8 6 4
4 4 2 2 4 5 4 4 3 6 4 4 6 7 7 6 6 6 5 5 4 4 4 3 2 2 2 2 2 1 2 2 2 3 3 3 3 3 3 2 4 4 5 4 5 5 4 3 3
3 1 3 3 4 4 4 4 4 4 5 6 8 9 8 7 6 6 6 5 4 4 4 3 3 2 2 2 2 2 2 1 2 2 3 3 2 2 2 2 2 2 2 3 3 2 4 4 4
3 2 3 5 6 5 6 5 4 3 5 6 7 8 8 7 6 5 6 5 5 4 4 4 4 3 3 2 2 2 2 2 2 2 2 3 2 2 2 2 2 2 2 2 3 3 4 4 4
3 4 3 3 4 3 6 3 4 3 6 7 7 7 6 7 6 4 5 5 5 4 4 4 4 3 3 2 2 2 2 2 2 2 2 3 2 2 2 2 2 2 2 2 2 3 3 2 3
4 4 2 1 2 3 5 2 2 5 7 7 6 5 5 5 5 6 7 7 6 5 4 4 5 4 4 3 3 2 2 2 2 2 2 3 2 2 2 2 2 2 2 3 3 3 3 3 3
3 3 0 2 2 2 5 3 4 5 7 6 5 4 4 4 5 5 6 6 6 5 5 5 5 4 4 3 2 2 2 2 2 2 2 3 3 3 2 2 2 2 2 2 2 3 3 3 2
1 1 3 2 2 3 4 4 4 5 7 7 6 5 4 4 3 4 5 6 6 6 6 5 4 4 4 4 3 2 2 2 2 2 2 2 3 3 3 2 2 2 2 2 2 2 2 2 2
4 3 3 4 3 4 4 5 4 5 7 8 7 5 5 6 6 5 5 6 6 6 5 5 5 4 4 3 3 2 2 2 2 2 2 2 2 3 3 2 2 2 2 2 2 2 2 1 1
3 3 3 5 4 4 6 6 6 6 5 6 6 6 6 7 6 5 5 6 6 5 4 4 5 4 4 3 2 2 1 1 1 1 2 2 2 2 3 2 2 2 2 2 2 2 2 2 2
3 2 2 2 3 3 4 6 6 7 8 8 9 9 8 6 4 5 5 5 6 6 5 4 5 4 4 3 3 2 2 1 1 0 1 2 2 2 2 2 2 2 2 3 2 2 2 2 2
2 4 4 3 0 0 1 3 4 4 4 5 6 7 8 9 9 8 7 6 6 6 6 6 5 5 4 4 3 2 2 2 2 2 1 1 1 2 2 2 2 2 2 1 1 1 2 1 1
3 4 3 3 2 2 2 3 6 4 3 5 6 5 6 7 8 8 8 7 7 7 6 6 5 5 4 5 4 5 3 2 1 1 0 0 1 1 1 1 2 1 1 1 0 1 1 1 0
4 3 2 2 2 1 1 2 6 2 4 7 7 7 7 8 9 9 9 9 8 7 6 6 5 4 4 5 5 5 3 2 1 0 1 1 1 1 1 1 1 1 1 0 0 1 1 1 1
1 3 4 4 3 2 4 4 6 4 7 7 7 7 7 8 8 8 8 7 6 6 5 5 5 4 5 5 5 5 4 3 2 1 1 0 1 1 0 1 1 0 0 0 0 0 0 0 0
4 5 3 3 2 5 3 3 7 7 6 8 8 8 7 7 8 7 7 7 7 7 6 5 6 5 5 5 5 5 5 5 4 3 2 1 0 1 1 0 1 0 0 0 0 0 0 0 0
1 6 5 4 4 4 2 4 6 6 4 4 5 5 6 7 7 8 9 9 9 8 7 7 7 5 5 5 5 4 4 3 3 3 3 3 2 2 1 1 1 0 0 0 0 0 1 0 0
2 2 4 4 1 2 4 5 6 2 1 0 2 3 5 7 7 8 9 9 9 9 8 8 8 6 6 6 5 4 4 3 3 3 3 2 2 1 1 1 0 0 0 0 0 0 1 0 1
4 4 4 3 1 3 4 4 4 4 4 3 3 4 5 6 6 7 8 8 8 8 7 7 7 7 6 6 5 4 4 4 3 3 3 2 2 1 1 1 0 0 0 0 1 0 1 0 1
1 2 3 3 3 3 3 6 4 5 5 5 6 6 6 6 6 6 7 7 7 6 6 6 6 5 5 5 4 4 4 4 3 3 3 3 2 2 2 1 1 0 0 0 0 1 0 1 1
3 4 5 3 3 3 3 8 5 3 4 4 4 4 6 6 5 5 6 6 6 6 6 6 6 6 5 5 4 4 4 3 3 3 3 3 2 2 2 2 1 0 0 0 0 1 1 1 2
Wind_Direction
306 336 87 61 55 55 49 351 86 64 59 59 71 78 80 62 82 125 199 123 120 112 98 90 89 88 86 82 76 73 73 72 71 71 72 74 76 78 78 82 84 83 81 78 74 71 70 70 68
328 44 63 58 77 76 24 321 83 87 130 119 75 72 73 66 72 108 113 116 119 114 101 95 91 91 87 84 79 76 74 71 70 71 73 74 76 79 80 83 83 82 81 78 72 68 66 65 63
306 81 76 66 87 134 154 202 125 99 104 89 76 55 68 93 104 122 140 130 118 107 101 103 97 93 87 83 84 83 79 73 70 73 74 74 74 77 80 83 83 81 80 77 73 68 64 62 61
64 47 57 69 79 159 166 190 140 106 71 56 91 68 54 50 127 140 132 125 118 109 101 108 104 98 91 86 86 85 84 79 75 75 75 75 75 77 80 84 86 85 82 77 74 71 66 64 63
66 73 66 62 62 65 133 149 110 97 83 71 89 89 56 15 97 119 122 123 124 120 110 110 105 102 96 91 87 84 84 82 79 77 75 75 77 78 81 83 85 86 84 79 74 71 68 65 64
59 68 85 95 86 70 70 95 90 83 94 98 95 104 95 94 110 127 125 124 124 124 112 103 104 99 94 91 90 88 83 80 79 79 76 72 71 76 83 85 86 84 83 80 74 70 67 63 66
98 91 117 137 120 63 111 87 90 96 97 109 118 104 123 133 136 135 124 119 113 112 104 87 86 89 91 91 88 85 82 81 79 77 75 70 66 72 79 85 87 85 81 78 75 69 66 63 64
120 100 91 115 128 140 123 87 95 97 97 102 102 124 164 193 149 128 116 112 109 104 100 93 74 69 72 81 83 80 79 77 73 70 68 67 64 67 71 78 80 82 80 74 69 63 60 63 66
86 79 122 178 151 159 127 97 66 70 92 74 77 126 155 144 130 116 100 90 96 100 91 95 83 69 68 79 78 72 76 70 63 62 60 58 53 51 56 65 75 75 73 67 57 52 53 58 59
81 105 192 181 153 139 108 103 112 74 71 63 62 76 111 122 124 123 123 123 123 124 125 110 108 101 88 87 71 47 56 51 50 47 50 52 52 51 55 49 61 62 60 53 46 44 47 51 46
100 146 150 107 128 125 108 94 90 107 92 140 139 142 137 129 127 131 138 142 150 145 125 116 114 108 98 86 87 59 52 52 51 53 58 59 54 50 50 44 39 38 41 36 33 34 35 42 49
97 119 136 128 116 115 119 113 92 111 162 165 151 149 144 143 149 151 149 147 140 131 126 128 122 111 99 101 105 91 77 60 54 52 61 67 60 50 47 44 32 32 30 30 32 40 40 44 51
101 122 90 99 97 106 100 99 112 115 137 138 139 140 150 156 158 157 155 146 134 135 135 139 127 118 106 98 95 90 89 83 75 63 59 69 75 66 54 38 36 32 32 40 43 50 52 50 50
142 122 114 113 110 101 103 100 104 156 143 137 138 150 163 165 159 147 151 147 147 147 144 141 132 123 109 106 104 97 92 85 78 67 66 73 73 71 73 60 43 34 33 44 55 57 59 54 55
114 100 61 122 136 145 105 54 168 174 148 147 158 163 165 170 163 169 175 164 162 157 144 139 138 119 109 108 115 106 97 89 80 69 63 70 76 77 73 69 52 37 48 54 57 51 50 47 48
69 77 75 268 168 171 124 214 233 168 151 164 177 177 170 173 169 175 176 164 158 150 139 140 139 124 116 112 108 102 96 93 85 76 69 69 70 70 71 63 47 37 53 57 60 55 50 35 32
47 170 217 254 204 158 148 215 229 182 163 179 190 191 179 172 167 170 172 165 158 156 151 138 133 132 127 120 107 103 100 93 86 75 66 58 64 64 70 62 46 42 54 50 54 53 65 44 21
218 210 217 215 217 152 172 219 223 197 178 185 191 190 184 182 191 182 170 161 151 151 152 145 140 140 126 111 90 77 72 69 67 73 72 66 61 65 71 68 52 53 59 44 46 51 37 44 24
196 192 222 234 212 171 200 221 223 204 190 191 196 195 196 200 194 171 165 150 139 135 137 142 140 140 128 118 112 102 87 64 57 73 84 74 67 70 78 71 59 51 59 49 56 67 44 24 26
192 196 232 257 221 178 207 230 224 207 203 198 197 197 198 195 174 166 163 151 149 151 153 148 149 149 150 148 149 146 141 134 123 82 61 70 80 80 81 79 69 59 59 46 48 66 60 20 32
239 201 213 218 299 154 134 291 255 242 221 211 206 197 194 188 183 178 170 166 161 164 168 163 167 159 152 138 116 92 68 50 40 33 32 24 89 85 78 91 89 74 76 69 36 68 95 54 351
257 237 200 190 130 255 182 258 270 236 228 219 216 203 198 191 182 177 172 171 174 177 172 164 166 162 157 146 137 135 135 154 203 201 181 356 60 81 91 94 88 90 83 85 2 55 94 111 347
223 236 205 200 175 286 254 199 277 228 231 239 228 213 202 191 180 178 178 177 178 174 169 164 159 158 158 156 155 150 145 164 162 112 94 41 14 39 95 101 93 79 68 41 29 31 52 108 156
216 36 32 44 73 280 238 191 267 229 218 225 223 215 204 190 184 182 180 169 168 166 162 157 156 161 162 163 165 161 160 158 144 144 145 349 330 325 22 94 94 88 48 329 271 125 132 136 135
60 78 30 353 353 255 239 194 249 247 223 210 208 207 201 186 180 179 175 171 169 168 165 163 163 171 173 168 173 175 175 172 177 180 177 172 215 261 260 122 122 106 280 287 96 104 289 182 141
191 136 157 204 233 275 311 234 255 265 240 211 197 190 186 183 182 184 184 181 178 176 172 171 172 176 177 178 185 184 178 177 185 184 177 187 202 214 204 176 160 153 161 6 25 3 282 350 265
140 168 175 153 239 271 283 286 298 311 347 86 171 179 191 191 187 188 186 183 181 178 179 178 177 179 183 185 184 183 178 177 181 181 176 187 205 195 152 163 162 211 180 179 130 311 282 290 252
148 151 85 109 190 261 283 267 254 257 247 227 204 203 207 192 189 190 187 186 183 182 179 176 178 184 187 185 185 182 182 180 177 171 174 182 194 180 154 174 177 186 199 200 147 322 280 313 288
100 103 120 135 166 174 259 269 236 228 233 220 218 205 195 191 194 195 192 186 178 174 173 176 181 180 186 185 184 177 180 177 171 174 183 181 178 173 175 177 168 228 142 13 54 284 339 322 316
165 170 146 157 236 195 210 266 283 250 240 217 225 216 195 188 188 187 186 177 172 176 180 185 184 183 190 184 177 177 176 170 171 180 184 173 172 183 184 168 155 201 263 309 283 271 309 273 289